FW0880 Weather Reports


time (UTC)temp
C
wind
direction
speed
KPH
gust
KPH
rain 1hr
cm
rain 24hr
cm
rain mn
cm
humidity
%
barometer
mb
20260906143521 29 144 0.0 4.8 0.00 1.32 0.00 77 1007.5
20260906143128 28 144 1.6 4.8 0.00 1.32 0.00 79 1007.5
20260906142524 28 144 1.6 3.2 0.00 1.32 0.00 81 1007.2
20260906142127 28 144 1.6 3.2 0.00 1.32 0.00 81 1007.1
20260906141520 28 144 0.0 4.8 0.00 1.32 0.00 82 1007.1
20260906141128 28 144 1.6 4.8 0.00 1.32 0.00 82 1007.2
20260906140528 28 145 0.0 3.2 0.00 1.32 0.00 83 1007.2
20260906135524 27 145 0.0 6.4 0.00 1.32 0.00 84 1007.3
20260906135138 27 145 1.6 6.4 0.00 1.32 0.00 84 1007.3
20260906134529 27 119 0.0 3.2 0.00 1.32 0.00 84 1007.3
20260906134011 27 119 1.6 3.2 0.00 1.32 0.00 84 1007.3
20260906133510 27 119 0.0 4.8 0.00 1.32 0.00 84 1007.3
20260906133012 27 119 1.6 4.8 0.00 1.32 0.00 84 1007.3
20260906132511 27 219 1.6 3.2 0.00 1.32 0.00 84 1007.3
20260906132014 27 220 0.0 4.8 0.00 1.32 0.00 84 1007.2
20260906131516 27 220 1.6 4.8 0.00 1.32 0.00 84 1007.1
20260906131137 27 328 0.0 3.2 0.00 1.32 0.00 84 1007.1
20260906130519 27 336 0.0 1.6 0.00 1.32 0.00 84 1007.0
20260906125524 27 336 1.6 3.2 0.00 1.32 0.00 83 1006.8
20260906125131 27 336 0.0 1.6 0.00 1.32 0.00 84 1006.8
20260906124521 27 336 0.0 3.2 0.00 1.32 0.00 83 1006.7
20260906124129 27 336 0.0 3.2 0.00 1.32 0.00 83 1006.6
20260906123520 27 336 0.0 3.2 0.00 1.32 0.00 83 1006.8
20260906123126 27 336 0.0 3.2 0.00 1.32 0.00 83 1006.8
20260906122522 27 336 0.0 3.2 0.00 1.32 0.00 83 1006.7
20260906122125 27 336 0.0 6.4 0.00 1.32 0.00 83 1006.7
20260906121525 27 336 1.6 8.0 0.00 1.32 0.00 83 1006.7
20260906121126 27 16 4.8 8.0 0.00 1.32 0.00 83 1006.8
20260906120526 27 289 3.2 6.4 0.00 1.32 0.00 83 1006.5
20260906120153 27 360 1.6 4.8 0.00 1.32 0.00 82 1006.5
20260906115511 27 53 1.6 3.2 0.00 1.32 0.00 82 1006.5
20260906115124 27 56 0.0 4.8 0.00 1.32 0.00 82 1006.5
20260906114512 27 56 1.6 4.8 0.00 1.32 0.00 83 1006.4
20260906114122 27 88 1.6 3.2 0.00 1.32 0.00 83 1006.4
20260906113517 27 89 0.0 1.6 0.00 1.32 0.00 83 1006.3
20260906113138 27 89 0.0 4.8 0.00 1.32 0.00 83 1006.3
20260906112519 27 89 1.6 4.8 0.00 1.32 0.00 83 1006.1
20260906112132 27 78 0.0 3.2 0.00 1.32 0.00 83 1006.2
20260906111522 27 78 0.0 1.6 0.00 1.32 0.00 83 1006.4
20260906111129 27 78 0.0 1.6 0.00 1.32 0.00 82 1006.5
20260906110519 27 78 0.0 1.6 0.00 1.32 0.00 82 1006.5
20260906105523 27 78 0.0 3.2 0.00 1.32 0.00 82 1006.2
20260906105136 27 78 1.6 3.2 0.00 1.32 0.00 82 1006.3
20260906104527 27 78 0.0 3.2 0.00 1.32 0.00 82 1006.3
20260906104009 27 78 0.0 3.2 0.00 1.32 0.00 82 1006.4
20260906103508 27 89 0.0 3.2 0.00 1.32 0.00 83 1006.4
20260906103011 27 91 0.0 6.4 0.00 1.32 0.00 83 1006.5
20260906102510 27 92 1.6 6.4 0.00 1.32 0.00 83 1006.6
20260906102011 27 74 1.6 6.4 0.00 1.32 0.00 83 1006.6
20260906101511 27 73 1.6 6.4 0.00 1.32 0.00 83 1006.6
20260906101133 27 17 1.6 4.8 0.00 1.32 0.00 83 1006.7
20260906100516 27 310 0.0 6.4 0.00 1.32 0.00 83 1006.6
20260906095520 27 106 1.6 4.8 0.00 1.32 0.00 84 1006.6
20260906095128 27 107 1.6 4.8 0.00 1.32 0.00 84 1006.6
20260906094531 28 107 0.0 3.2 0.00 1.32 0.00 84 1006.8
20260906094125 28 107 0.0 3.2 0.00 1.32 0.00 84 1006.9
20260906093523 28 107 0.0 1.6 0.00 1.32 0.00 84 1006.9
20260906093124 28 107 0.0 1.6 0.00 1.32 0.00 84 1006.9
20260906092513 28 107 0.0 3.2 0.00 1.32 0.00 84 1007.0
20260906092123 28 107 0.0 3.2 0.00 1.32 0.00 84 1007.1
20260906091523 28 107 0.0 3.2 0.00 1.32 0.00 84 1007.1
20260906091122 28 107 0.0 3.2 0.00 1.32 0.00 85 1007.1
20260906090514 28 107 0.0 6.4 0.00 1.32 0.00 84 1007.1
20260906090154 28 107 1.6 6.4 0.00 1.32 0.00 85 1007.1
20260906085518 28 104 0.0 3.2 0.00 1.32 0.00 85 1007.3
20260906085134 28 104 0.0 3.2 0.00 1.32 0.00 85 1007.4
20260906084524 28 104 0.0 3.2 0.00 1.32 0.00 84 1007.5
20260906084134 28 104 0.0 3.2 0.00 1.32 0.00 84 1007.7
20260906083523 28 104 0.0 1.6 0.00 1.32 0.00 84 1007.7
20260906083131 28 104 0.0 1.6 0.00 1.32 0.00 84 1007.7
20260906082520 28 104 0.0 3.2 0.00 1.32 0.00 84 1007.7
20260906082129 28 104 0.0 4.8 0.00 1.32 0.00 84 1007.7
20260906081532 28 104 1.6 4.8 0.00 1.32 0.00 84 1007.8
20260906081127 28 108 0.0 3.2 0.00 1.32 0.00 84 1007.8
20260906080521 28 109 0.0 4.8 0.00 1.32 0.00 84 1007.8
20260906080010 28 108 0.0 4.8 0.00 1.32 0.00 84 1007.7
20260906075508 28 111 0.0 3.2 0.00 1.32 0.00 84 1007.9
20260906075012 28 110 0.0 1.6 0.00 1.32 0.00 84 1008.0
20260906074511 28 110 0.0 3.2 0.00 1.32 0.00 84 1008.1
20260906074012 28 110 0.0 3.2 0.00 1.32 0.00 84 1008.2
20260906073513 28 111 0.0 4.8 0.00 1.32 0.00 84 1008.0
20260906073013 28 111 1.6 4.8 0.00 1.32 0.00 84 1008.0
20260906072513 28 73 1.6 3.2 0.00 1.32 0.00 83 1008.1
20260906072135 28 57 0.0 3.2 0.00 1.32 0.00 83 1008.0
20260906071519 28 58 0.0 4.8 0.00 1.32 0.00 83 1007.9
20260906071133 28 58 1.6 4.8 0.00 1.32 0.00 84 1008.0
20260906070518 28 58 0.0 0.0 0.00 1.32 0.00 84 1008.0
20260906065522 28 54 0.0 0.0 0.00 1.32 0.00 84 1008.0
20260906065126 28 54 0.0 1.6 0.00 1.32 0.00 84 1008.0
20260906064533 28 54 0.0 3.2 0.00 1.32 0.00 84 1007.9
20260906064130 28 54 0.0 3.2 0.00 1.32 0.00 84 1008.0
20260906063527 28 54 0.0 4.8 0.00 1.32 0.00 84 1008.2
20260906063126 28 54 0.0 4.8 0.00 1.32 0.00 84 1008.2
20260906062510 28 54 0.0 3.2 0.00 1.32 0.00 83 1008.3
20260906062127 28 54 0.0 3.2 0.00 1.32 0.00 83 1008.4
20260906061512 28 40 0.0 3.2 0.00 1.32 0.00 83 1008.3
20260906061126 28 40 0.0 3.2 0.00 1.32 0.00 83 1008.4
20260906060514 28 5 0.0 3.2 0.00 1.32 0.00 84 1008.7
20260906055519 28 5 1.6 6.4 0.00 1.32 1.32 84 1008.8
20260906055123 28 37 3.2 4.8 0.00 1.32 1.32 84 1008.8
20260906054521 28 70 3.2 4.8 0.00 1.32 1.32 85 1008.6
20260906054136 28 113 1.6 3.2 0.00 1.32 1.32 86 1008.6
20260906053520 28 113 0.0 1.6 0.00 1.32 1.32 86 1008.5
20260906053132 28 113 0.0 1.6 0.00 1.32 1.32 86 1008.6
20260906052520 28 113 0.0 0.0 0.00 1.32 1.32 86 1008.6
20260906052131 28 113 0.0 1.6 0.00 1.32 1.32 86 1008.5
20260906051525 28 113 0.0 1.6 0.00 1.32 1.32 86 1008.4
20260906051131 28 113 0.0 1.6 0.00 1.32 1.32 87 1008.3
20260906050522 28 113 0.0 4.8 0.00 1.32 1.32 87 1008.0
20260906045507 28 122 1.6 3.2 0.00 1.32 1.32 87 1008.0
20260906045127 28 122 0.0 3.2 0.00 1.32 1.32 87 1008.1
20260906044510 28 138 0.0 1.6 0.00 1.32 1.32 87 1008.0
20260906044128 28 138 0.0 3.2 0.00 1.32 1.32 88 1008.0
20260906043511 28 138 0.0 3.2 0.00 1.32 1.32 88 1008.2
20260906043128 28 138 0.0 4.8 0.00 1.32 1.32 88 1008.0
20260906042513 28 138 1.6 4.8 0.00 1.32 1.32 88 1008.0
20260906042128 28 137 0.0 4.8 0.00 1.32 1.32 88 1008.0
20260906041518 28 137 1.6 4.8 0.00 1.32 1.32 88 1008.0
20260906041126 28 82 0.0 3.2 0.00 1.32 1.32 88 1008.0
20260906040517 28 82 0.0 3.2 0.00 1.32 1.32 89 1008.0
20260906035520 27 82 1.6 4.8 0.00 1.32 1.32 89 1007.8
20260906035130 27 82 1.6 3.2 0.00 1.32 1.32 89 1007.7
20260906034530 27 82 1.6 4.8 0.00 1.32 1.32 89 1007.7
20260906034130 27 82 0.0 4.8 0.00 1.32 1.32 89 1007.7
20260906033520 27 98 1.6 3.2 0.00 1.32 1.32 89 1007.7
20260906033128 28 98 0.0 3.2 0.00 1.32 1.32 89 1007.7
20260906032523 28 99 0.0 1.6 0.00 1.32 1.32 89 1007.8
20260906031528 28 99 0.0 3.2 0.00 1.32 1.32 89 1007.6
20260906031126 28 99 0.0 4.8 0.00 1.32 1.32 89 1007.5
20260906030530 28 98 1.6 4.8 0.00 1.32 1.32 89 1007.3
20260906030153 28 97 0.0 4.8 0.00 1.32 1.32 89 1007.3
20260906025512 28 99 0.0 4.8 0.00 1.32 1.32 89 1007.2
20260906025136 28 99 1.6 4.8 0.00 1.32 1.32 89 1007.0
20260906024517 28 99 0.0 3.2 0.00 1.32 1.32 89 1006.9
20260906024133 28 99 0.0 3.2 0.00 1.32 1.32 89 1006.9
20260906023516 28 99 0.0 3.2 0.00 1.32 1.32 89 1007.0
20260906023130 28 99 1.6 3.2 0.00 1.32 1.32 90 1006.9
20260906022517 28 100 0.0 3.2 0.00 1.32 1.32 89 1006.7
20260906022130 28 100 0.0 3.2 0.00 1.32 1.32 89 1006.6
20260906021519 28 99 0.0 4.8 0.08 1.32 1.32 89 1006.8
20260906021131 28 99 1.6 4.8 0.13 1.32 1.32 89 1006.7
20260906020625 28 91 1.6 4.8 0.13 1.32 1.32 90 1006.6
20260906015528 28 101 1.6 4.8 0.15 1.32 1.32 89 1006.6
20260906015126 28 143 1.6 3.2 0.15 1.32 1.32 89 1006.6
20260906014511 28 143 1.6 4.8 0.15 1.32 1.32 89 1006.5
20260906014126 28 144 0.0 3.2 0.15 1.32 1.32 89 1006.6
20260906013511 28 144 0.0 3.2 0.61 1.32 1.32 88 1006.6
20260906013126 28 144 1.6 6.4 0.94 1.32 1.32 88 1006.6
20260906012513 29 144 3.2 6.4 1.32 1.32 1.32 88 1006.6
20260906012126 28 145 3.2 6.4 1.32 1.32 1.32 87 1006.7
20260906011518 28 130 1.6 11.3 1.22 1.22 1.22 86 1006.7
20260906011122 28 141 4.8 11.3 1.19 1.19 1.19 85 1006.7
20260906010519 28 154 3.2 9.7 1.19 1.19 1.19 85 1006.6
20260906010202 28 162 1.6 12.9 1.19 1.19 1.19 84 1006.6
20260906005522 28 211 4.8 20.9 1.17 1.17 1.17 83 1006.5
20260906005132 28 283 1.6 20.9 1.17 1.17 1.17 84 1006.4
20260906004519 29 257 4.8 16.1 1.17 1.17 1.17 83 1006.2
20260906004124 30 300 8.0 16.1 1.14 1.14 1.14 82 1006.2
20260906003524 31 279 6.4 16.1 0.66 0.66 0.66 78 1006.1
20260906003136 32 208 9.7 14.5 0.36 0.36 0.36 76 1006.0
20260906002525 33 221 4.8 14.5 0.00 0.00 0.00 74 1005.9
20260906002135 32 248 3.2 12.9 0.00 0.00 0.00 73 1005.8
20260906001517 32 223 4.8 14.5 0.00 0.00 0.00 73 1005.8
20260906001131 32 265 6.4 14.5 0.00 0.00 0.00 74 1005.8
20260906000517 32 247 4.8 14.5 0.00 0.00 0.00 74 1005.6
20260905235520 32 217 8.0 17.7 0.00 0.00 0.00 73 1005.6
20260905235136 32 225 4.8 14.5 0.00 0.00 0.00 72 1005.7
20260905234520 32 226 8.0 17.7 0.00 0.00 0.00 72 1005.4
20260905234134 32 223 8.0 17.7 0.00 0.00 0.00 71 1005.3
20260905233520 33 247 6.4 14.5 0.00 0.00 0.00 71 1005.4
20260905233132 33 196 4.8 12.9 0.00 0.00 0.00 71 1005.4
20260905232522 32 176 3.2 17.7 0.00 0.00 0.00 71 1005.3
20260905232132 32 175 9.7 22.5 0.00 0.00 0.00 71 1005.3
20260905231520 32 185 8.0 17.7 0.00 0.00 0.00 71 1005.2
20260905231132 33 194 9.7 22.5 0.00 0.00 0.00 71 1005.2
20260905225601 32 195 9.7 17.7 0.00 0.00 0.00 74 1005.2
20260905225010 32 163 6.4 24.1 0.00 0.00 0.00 73 1005.1
20260905224510 33 257 9.7 22.5 0.00 0.00 0.00 73 1005.1
20260905224014 33 194 9.7 16.1 0.00 0.00 0.00 72 1005.1
20260905223515 33 203 8.0 17.7 0.00 0.00 0.00 71 1005.2
20260905223020 33 215 9.7 17.7 0.00 0.00 0.00 71 1005.2
20260905222517 33 176 12.9 19.3 0.00 0.00 0.00 69 1005.4
20260905222018 33 194 8.0 20.9 0.00 0.00 0.00 71 1005.4
20260905221517 33 224 11.3 20.9 0.00 0.00 0.00 70 1005.3
20260905221023 33 169 9.7 24.1 0.00 0.00 0.00 71 1005.3
20260905220525 33 251 12.9 24.1 0.00 0.00 0.00 70 1005.1
20260905220008 33 173 4.8 16.1 0.00 0.00 0.00 71 1005.3
20260905215508 33 222 6.4 17.7 0.00 0.00 0.00 70 1005.4
20260905215012 33 200 9.7 17.7 0.00 0.00 0.00 71 1005.3
20260905214511 33 223 8.0 16.1 0.00 0.00 0.00 70 1005.3
20260905214020 33 200 9.7 19.3 0.00 0.00 0.00 71 1005.4
20260905213519 33 191 8.0 20.9 0.00 0.00 0.00 71 1005.5
20260905213023 33 197 8.0 20.9 0.00 0.00 0.00 71 1005.5
20260905212520 33 212 8.0 20.9 0.00 0.00 0.00 71 1005.5
20260905212029 33 195 14.5 24.1 0.00 0.00 0.00 71 1005.5
20260905211524 33 157 11.3 19.3 0.00 0.00 0.00 72 1005.7
20260905211014 33 201 11.3 19.3 0.00 0.00 0.00 71 1005.7
20260905210511 33 172 9.7 20.9 0.00 0.00 0.00 72 1005.7
20260905210017 33 202 11.3 19.3 0.00 0.00 0.00 72 1005.7
20260905205517 33 202 9.7 17.7 0.00 0.00 0.00 71 1005.8
20260905205020 33 198 6.4 19.3 0.00 0.00 0.00 71 1005.8
20260905204518 33 217 9.7 19.3 0.00 0.00 0.00 70 1005.9
20260905204005 33 223 8.0 16.1 0.00 0.00 0.00 70 1006.1
20260905203504 33 229 9.7 16.1 0.00 0.00 0.00 70 1006.2
20260905203010 34 196 8.0 16.1 0.00 0.00 0.00 70 1006.2
20260905202508 33 190 9.7 14.5 0.00 0.00 0.00 69 1006.3
20260905202014 33 173 8.0 16.1 0.00 0.00 0.00 68 1006.3
20260905201512 33 153 6.4 16.1 0.00 0.00 0.00 70 1006.4
20260905201021 33 234 11.3 16.1 0.00 0.00 0.00 68 1006.5
20260905200521 33 217 9.7 17.7 0.00 0.00 0.00 70 1006.6
20260905200009 33 200 9.7 17.7 0.00 0.00 0.00 70 1006.8
20260905195506 33 202 8.0 14.5 0.00 0.00 0.00 70 1006.8
20260905195014 33 180 6.4 14.5 0.00 0.00 0.00 71 1006.9
20260905194509 33 238 6.4 17.7 0.00 0.00 0.00 70 1007.0
20260905194014 33 248 9.7 17.7 0.00 0.00 0.00 69 1007.2
20260905193512 34 286 4.8 16.1 0.00 0.00 0.00 69 1007.2
20260905193028 34 286 8.0 16.1 0.00 0.00 0.00 69 1007.2
20260905192523 34 286 6.4 17.7 0.00 0.00 0.00 68 1007.3
20260905192006 33 207 8.0 17.7 0.00 0.00 0.00 68 1007.4
20260905191505 33 219 6.4 16.1 0.00 0.00 0.00 69 1007.4
20260905191009 34 267 9.7 19.3 0.00 0.00 0.00 67 1007.5
20260905190508 33 189 6.4 19.3 0.00 0.00 0.00 66 1007.6
20260905190017 33 259 6.4 16.1 0.00 0.00 0.00 67 1007.7
20260905185518 33 238 6.4 16.1 0.00 0.00 0.00 66 1007.7
20260905185023 33 219 8.0 16.1 0.00 0.00 0.00 66 1007.9
20260905184523 33 277 6.4 12.9 0.00 0.00 0.00 67 1007.9
20260905184025 33 251 4.8 14.5 0.00 0.00 0.00 68 1007.9
20260905183524 33 229 4.8 14.5 0.00 0.00 0.00 66 1008.0
20260905183012 33 220 3.2 16.1 0.00 0.00 0.00 67 1008.0
20260905182507 33 250 4.8 12.9 0.00 0.00 0.00 67 1008.2
20260905182013 33 259 4.8 16.1 0.00 0.00 0.00 68 1008.1
20260905181514 33 215 6.4 16.1 0.00 0.00 0.00 68 1008.1
20260905181015 33 226 8.0 11.3 0.00 0.00 0.00 68 1008.0
20260905180516 33 187 4.8 17.7 0.00 0.00 0.00 68 1008.0
20260905180007 33 182 9.7 17.7 0.00 0.00 0.00 67 1008.0
20260905175505 33 252 9.7 14.5 0.00 0.00 0.00 67 1008.1
20260905175009 32 189 8.0 16.1 0.00 0.00 0.00 67 1008.1
20260905174521 32 199 8.0 16.1 0.00 0.00 0.00 68 1008.2
20260905174013 32 242 8.0 16.1 0.00 0.00 0.00 68 1008.3
20260905173512 32 225 9.7 16.1 0.00 0.00 0.00 68 1008.3
20260905173025 32 200 8.0 14.5 0.00 0.00 0.00 68 1008.3
20260905172521 33 180 6.4 14.5 0.00 0.00 0.00 68 1008.4
20260905172024 33 260 4.8 14.5 0.00 0.00 0.00 68 1008.5
20260905171522 33 220 8.0 14.5 0.00 0.00 0.00 67 1008.5
20260905171011 32 268 4.8 11.3 0.00 0.00 0.00 69 1008.5
20260905170506 32 211 3.2 11.3 0.00 0.00 0.00 71 1008.5
20260905170013 32 200 8.0 11.3 0.00 0.00 0.00 71 1008.5
20260905165511 32 223 8.0 14.5 0.00 0.00 0.00 71 1008.6
20260905165019 32 190 4.8 14.5 0.00 0.00 0.00 72 1008.5
20260905164519 31 211 8.0 14.5 0.00 0.00 0.00 72 1008.5
20260905164022 31 221 4.8 12.9 0.00 0.00 0.00 73 1008.5
20260905163520 31 246 4.8 12.9 0.00 0.00 0.00 73 1008.6
20260905163019 31 219 3.2 16.1 0.00 0.00 0.00 73 1008.6
20260905162516 31 222 6.4 19.3 0.00 0.00 0.00 73 1008.6
20260905162024 31 216 9.7 19.3 0.00 0.00 0.00 73 1008.6
20260905161522 31 217 4.8 16.1 0.00 0.00 0.00 72 1008.6
20260905161008 31 229 8.0 16.1 0.00 0.00 0.00 72 1008.6
20260905160506 31 212 4.8 9.7 0.00 0.00 0.00 72 1008.6
20260905160022 31 240 3.2 9.7 0.00 0.00 0.00 73 1008.5
20260905155511 31 237 4.8 11.3 0.00 0.00 0.00 72 1008.5
20260905155019 31 195 6.4 11.3 0.00 0.00 0.00 72 1008.4
20260905154518 31 207 8.0 11.3 0.00 0.00 0.00 70 1008.4
20260905154020 31 186 4.8 14.5 0.00 0.00 0.00 70 1008.4
20260905153520 31 198 8.0 16.1 0.00 0.00 0.00 70 1008.4
20260905153025 31 173 8.0 12.9 0.00 0.00 0.00 70 1008.4
20260905152523 31 237 6.4 12.9 0.00 0.00 0.00 69 1008.5
20260905152012 31 183 6.4 12.9 0.00 0.00 0.00 70 1008.4
20260905151508 31 196 6.4 14.5 0.00 0.00 0.00 71 1008.5
20260905151024 31 209 6.4 11.3 0.00 0.00 0.00 69 1008.5
20260905150512 31 162 6.4 9.7 0.00 0.00 0.00 67 1008.5
20260905150026 31 235 1.6 4.8 0.00 0.00 0.00 66 1008.4
20260905145519 31 308 1.6 4.8 0.00 0.00 0.00 66 1008.4
20260905145021 30 298 0.0 4.8 0.00 0.00 0.00 67 1008.3
20260905144538 30 298 3.2 4.8 0.00 0.00 0.00 67 1008.3
20260905144023 30 184 0.0 4.8 0.00 0.00 0.00 69 1008.3